Santa Monica, CA

1:28 PM PDT on May 26, 2017 (GMT -0700)
Santa Monica Municipal

Weather History for KSMO - September, 2013

Change the Weather History Date:

Tuesday, September 24, 2013

  Actual Average Record
Temperature  
Mean Temperature 70 °F -  
Max Temperature 79 °F 81 °F 103 °F (1978)
Min Temperature 62 °F 62 °F 49 °F (1941)
Cooling Degree Days 5    
Growing Degree Days 20 (Base 50)    
Moisture  
Dew Point 54 °F    
Average Humidity 61    
Maximum Humidity 87    
Minimum Humidity 33    
Precipitation  
Precipitation 0.00 in - - ()
Sea Level Pressure  
Sea Level Pressure 29.88 in    
Wind  
Wind Speed 3 mph (SW)    
Max Wind Speed 12 mph    
Max Gust Speed -    
Visibility 10 miles    
Events      
Averages and records for this station are not official NWS values.
T = Trace of Precipitation, MM = Missing Value Source: NWS Daily Summary

Daily Weather History Graph

Daily Weather History Graph

Search for Another Location

Airport or City:

Trip Planner

Search our weather history database for the weather conditions in past years. The results will help you decide how hot, cold, wet, or windy it might be!

Date:

Astronomy

Sep. 24, 2013 Rise Set
Actual Time 6:43 AM PDT 6:47 PM PDT
Civil Twilight 6:18 AM PDT 7:12 PM PDT
Nautical Twilight 5:49 AM PDT 7:41 PM PDT
Astronomical Twilight 5:20 AM PDT 8:10 PM PDT
Moon 10:22 PM PDT (9/24) 11:48 AM PDT (9/24)
Length of Visible Light 12h 53m
Length of Day
12h 03m
Waning Gibbous, 72% of the Moon is Illuminated
Sep 24
Waning Gibbous
Sep 26
Last Quarter
Oct 4
New
Oct 11
First Quarter
Oct 18
Full

Hourly Weather History & Observations

Time (PDT) Temp. Dew Point Humidity Pressure Visibility Wind Dir Wind Speed Gust Speed Precip Events Conditions
12:51 AM 64.9 °F 55.9 °F 73% 29.89 in 10.0 mi Calm Calm - N/A   Clear
1:51 AM 64.0 °F 55.0 °F 73% 29.90 in 10.0 mi Calm Calm - N/A   Clear
2:51 AM 63.0 °F 53.1 °F 70% 29.88 in 10.0 mi Calm Calm - N/A   Clear
3:51 AM 62.1 °F 53.1 °F 72% 29.88 in 10.0 mi NE 3.5 mph - N/A   Clear
4:51 AM 63.0 °F 50.0 °F 63% 29.88 in 10.0 mi NNE 4.6 mph - N/A   Clear
5:51 AM 62.1 °F 48.9 °F 62% 29.88 in 10.0 mi ENE 3.5 mph - N/A   Clear
6:51 AM 62.1 °F 51.1 °F 67% 29.89 in 10.0 mi Calm Calm - N/A   Clear
7:51 AM 68.0 °F 51.1 °F 55% 29.91 in 10.0 mi Calm Calm - N/A   Clear
8:51 AM 72.0 °F 46.0 °F 40% 29.92 in 10.0 mi SSW 5.8 mph - N/A   Clear
9:51 AM 72.0 °F 48.9 °F 44% 29.94 in 10.0 mi WSW 5.8 mph - N/A   Clear
10:51 AM 75.0 °F 54.0 °F 48% 29.93 in 10.0 mi SSW 5.8 mph - N/A   Clear
11:51 AM 77.0 °F 53.1 °F 43% 29.92 in 10.0 mi SW 6.9 mph - N/A   Clear
12:51 PM 75.9 °F 55.0 °F 48% 29.91 in 10.0 mi WSW 9.2 mph - N/A   Clear
1:51 PM 75.9 °F 55.9 °F 50% 29.88 in 10.0 mi WSW 9.2 mph - N/A   Clear
2:51 PM 77.0 °F 50.0 °F 39% 29.87 in 10.0 mi SW 10.4 mph - N/A   Clear
3:51 PM 78.1 °F 46.9 °F 33% 29.86 in 10.0 mi SW 8.1 mph - N/A   Clear
4:51 PM 75.9 °F 50.0 °F 40% 29.85 in 10.0 mi WSW 8.1 mph - N/A   Clear
5:51 PM 72.0 °F 57.0 °F 59% 29.84 in 10.0 mi SW 11.5 mph - N/A   Clear
6:51 PM 69.1 °F 61.0 °F 75% 29.84 in 10.0 mi WSW 4.6 mph - N/A   Clear
7:51 PM 69.1 °F 55.9 °F 63% 29.84 in 10.0 mi SW 4.6 mph - N/A   Clear
8:51 PM 66.9 °F 57.9 °F 73% 29.86 in 10.0 mi South 4.6 mph - N/A   Clear
9:51 PM 66.0 °F 59.0 °F 78% 29.87 in 10.0 mi Calm Calm - N/A   Clear
10:51 PM 64.9 °F 59.0 °F 81% 29.87 in 10.0 mi Calm Calm - N/A   Clear
11:10 PM 64.4 °F 59.0 °F 83% 29.87 in 10.0 mi Calm Calm - N/A   Scattered Clouds
11:51 PM 64.0 °F 60.1 °F 87% 29.85 in 10.0 mi Calm Calm - N/A   Partly Cloudy